sat.trackr.live / text

‹ back to catalog

ANIK F1R

NORAD 28868 · 2005-036A

PAYLOAD ACTIVE UNKNOWN

§ Identity

Operator
Country
CA
Launch date
2005-09-08
Launch site
TYMSC
Launch vehicle
Mass (kg)
RCS (m²)
12.59

Purposes: comms

External: N2YO · Heavens-Above · Gunter

§ Orbital elements

Epoch: 2026-09-18T23:21:16.613280Z

Period
1,436.08 min
Inclination
4.5464°
Eccentricity
0.0002627
Mean motion
1.00272966 rev/d
Perigee alt
35,775.2 km
Apogee alt
35,797.3 km
Semi-major
42,164.4 km
B*
0.0000e+0
RAAN
75.3601°
Arg perigee
63.5174°
Mean anomaly
102.0499°
Rev number
4,739

§ Raw data

ANIK F1R1 28868U 05036A   26261.97310895 -.00000079  00000+0  00000+0 0  99902 28868   4.5464  75.3601 0002627  63.5174 102.0499  1.00272966 47393

JSON: /api/v1/satellites/28868 · /tle

For live sub-satellite position, see the globe view (requires WebGL).

§ Visibility from observer

Set your observer location to see the next 7 days of passes ≥ 10°. The values pass through the URL so the page stays shareable.

No JS? Fill the form by hand. The geolocation button needs JavaScript.